Regional Weather Roundup
Issued by NWS Cleveland, OH

Home | Current Version | Previous Version | Graphics & Text | Print | Product List | Glossary On
Versions: 1 2 3 4 5 6 7 8 9 10 11 12 13 14 15 16 17 18 19 20 21 22 23 24 25 26 27 28 29 30 31 32 33 34 35 36 37 38 39 40 41 42 43 44 45 46 47 48 49 50
000
ASUS41 KCLE 022210
RWRCLE
OHIO REGIONAL WEATHER ROUNDUP
NATIONAL WEATHER SERVICE WILMINGTON, OH
600 PM EDT SUN AUG 02 2015

NOTE: "FAIR" INDICATES FEW OR NO CLOUDS BELOW 12,000 FEET WITH NO
SIGNIFICANT WEATHER AND/OR OBSTRUCTIONS TO VISIBILITY.

OHZ001>008-015>018-024>027-034-035-043-044-022300-
   NORTHWEST OHIO

CITY           SKY/WX    TMP DP  RH WIND       PRES   REMARKS
DEFIANCE       SUNNY     90  61  37 SW18G29   29.79S HX  90
FINDLAY        SUNNY     88  65  46 SW21G26   29.82S HX  90
TOLEDO EXPRESS SUNNY     88  62  41 SW17G28   29.77F
TOLEDO EXEC    SUNNY     91  61  36 SW17G35   29.78F HX  91
LIMA           SUNNY     86  65  49 SW15G24   29.86S
$$

OHZ009>014-019>023-028>033-038-089-022300-
   NORTHEAST OHIO

CITY           SKY/WX    TMP DP  RH WIND       PRES   REMARKS
CLE-HOPKINS    MOSUNNY   88  62  41 SW14G23   29.84F
CLE-LAKEFRONT  SUNNY     91  59  33 S21G32    29.80F HX  90
CUY CO. ARPT   MOSUNNY   90  61  37 SW16      29.82F
LORAIN-ELYRIA  SUNNY     87  61  41 SW16G23   29.83F
ASHTABULA      SUNNY     88  61  40 SW13G22   29.83F
AKRON-CANTON   MOSUNNY   86  62  44 SW18G25   29.89R
WOOSTER        SUNNY     83  61  47 SW15G21   29.88S
MANSFIELD      SUNNY     85  60  42 SW18G25   29.88S
YOUNGSTOWN     PTSUNNY   85  63  47 SW14G21   29.88S
$$

OHZ042-051>053-060>062-070>072-077>081-022300-
  SOUTHWEST OHIO

CITY           SKY/WX    TMP DP  RH WIND       PRES   REMARKS
CINC-COVINGTON MOSUNNY   85  62  46 S9        29.93F
CINC-LUNKEN    SUNNY     85  61  44 S10       29.91F
HAMILTON       SUNNY     86  62  44 SW8       29.91F
DAYTON         MOSUNNY   85  61  44 SW17      29.90F
WRIGHT-PAT AFB SUNNY     86  60  41 SW15      29.89F
DAYTON GENERAL SUNNY     85  58  39 S15       29.91F
WILMINGTON     SUNNY     83  61  47 S12       29.92F
$$

OHZ036-037-039>041-045>050-054>059-063>069-073>076-082>088-022300-
  CENTRAL AND SOUTHEAST OHIO

CITY           SKY/WX    TMP DP  RH WIND       PRES   REMARKS
COLUMBUS       MOSUNNY   87  61  41 SW14G23   29.89F
OSU AIRPORT    SUNNY     85  59  41 SW13G25   29.89F
BOLTON FIELD   SUNNY     84  64  51 S12       29.91F
RICKENBACK AFB SUNNY     85  63  47 SW16      29.90F
NEWARK         SUNNY     86  62  44 SW13      29.90F
MARION         SUNNY     86  60  41 SW18      29.87F
LANCASTER      MOSUNNY   84  64  50 SW9       29.92F
ZANESVILLE     SUNNY     85  60  42 W8G20     29.91F
NEW PHILLY     MOSUNNY   83  65  54 SW8       29.90S
$$


USA.gov is the U.S. government's official web portal to all federal, state and local government web resources and services.